Regional Weather Roundup
Issued by NWS Cleveland, OH

Home | Current Version | Previous Version | Graphics & Text | Print | Product List | Glossary On
Versions: 1 2 3 4 5 6 7 8 9 10 11 12 13 14 15 16 17 18 19 20 21 22 23 24 25 26 27 28 29 30 31 32 33 34 35 36 37 38 39 40 41 42 43 44 45 46 47 48 49 50
000
ASUS41 KCLE 161512
RWRCLE
OHIO REGIONAL WEATHER ROUNDUP
NATIONAL WEATHER SERVICE WILMINGTON, OH
1000 AM EST MON JAN 16 2017

NOTE: "FAIR" INDICATES FEW OR NO CLOUDS BELOW 12,000 FEET WITH NO
SIGNIFICANT WEATHER AND/OR OBSTRUCTIONS TO VISIBILITY.

OHZ001>008-015>018-024>027-034-035-043-044-161600-
   NORTHWEST OHIO

CITY           SKY/WX    TMP DP  RH WIND       PRES   REMARKS
DEFIANCE       CLOUDY    33  28  81 E6        30.31S HAZE    WCI  28
FINDLAY        CLOUDY    34  28  79 E6        30.30S HAZE    WCI  29
TOLEDO EXPRESS CLOUDY    30  28  92 E6        30.32S FOG     WCI  24
TOLEDO EXEC    CLOUDY    32  29  88 E3        30.34R FOG
LIMA           CLOUDY    34  33  96 E5        30.28S FOG     WCI  30
$$

OHZ009>014-019>023-028>033-038-089-161600-
   NORTHEAST OHIO

CITY           SKY/WX    TMP DP  RH WIND       PRES   REMARKS
CLE-HOPKINS    CLOUDY    34  26  72 SE5       30.37S WCI  30
CLE-LAKEFRONT  CLOUDY    32  26  78 NE3       30.35S
CUY CO. ARPT   CLOUDY    32  25  74 CALM      30.36R
LORAIN-ELYRIA  CLOUDY    30  25  81 S6        30.35R HAZE    WCI  24
ASHTABULA      NOT AVBL
AKRON-CANTON   CLOUDY    32  23  69 SE3       30.33S
WOOSTER        CLOUDY    31  25  78 CALM      30.34R
MANSFIELD      CLOUDY    34  29  82 SE7       30.31S WCI  28
YOUNGSTOWN     CLOUDY    29  22  75 E3        30.34R
$$

OHZ042-051>053-060>062-070>072-077>081-161600-
  SOUTHWEST OHIO

CITY           SKY/WX    TMP DP  RH WIND       PRES   REMARKS
CINC-COVINGTON FOG       40  40 100 SE9       30.28R VSB 3/4
CINC-LUNKEN    CLOUDY    42  40  92 S5        30.31S FOG
HAMILTON       CLOUDY    42  40  92 VRB3      30.30S FOG
DAYTON         CLOUDY    37  36  96 SE7       30.29R FOG
WRIGHT-PAT AFB CLOUDY    37  37 100 SE5       30.29S
DAYTON GENERAL CLOUDY    40  38  93 SE8       30.28R FOG
WILMINGTON     CLOUDY    40  39  97 SE8       30.28F FOG
$$

OHZ036-037-039>041-045>050-054>059-063>069-073>076-082>088-161600-
  CENTRAL AND SOUTHEAST OHIO

CITY           SKY/WX    TMP DP  RH WIND       PRES   REMARKS
COLUMBUS       CLOUDY    39  33  79 E3        30.32R HAZE
OSU AIRPORT    CLOUDY    37  34  89 SE6       30.31S FOG
BOLTON FIELD   CLOUDY    37  34  87 CALM      30.32R FOG
RICKENBACK AFB   N/A     36  34  93 NE6       30.32S FOG
NEWARK         CLOUDY    35  30  82 NE3       30.32S HAZE
MARION         CLOUDY    34  30  85 SE7       30.31S FOG     WCI  28
LANCASTER      CLOUDY    39  35  86 SE3       30.33R
ZANESVILLE     CLOUDY    35  30  82 SE3       30.33R
NEW PHILLY     CLOUDY    32  27  81 CALM      30.35F
$$




USA.gov is the U.S. government's official web portal to all federal, state and local government web resources and services.